[[{"header":{"parameterUnit":"m.s-1","parameterCategory":1,"la1":30.2991,"la2":30.254,"lo1":-89.0895,"lo2":-89.0444,"dy":0.0017,"dx":0.0017,"nx":28,"ny":28,"refTime":"2024-08-06T03:00:00:Z","depth":0,"parameterNumber":2,"parameterNumberName":"U-component_of_WINDS"},"data":[0,0,0,0,0,0,0,0,0,0,0,0,0,0,0,0,0,0,0,0,0,0,0,0,0,0,0,0,0,0,0,0,0,0,0,0,0,0,0,0,0,0,0,0,0,0,0,0,0,0,0,0,0,0,0,0,0,0,2.3378,2.3379,0,2.3422,2.3422,2.3423,2.3375,2.3373,2.3371,2.3369,2.3415,2.3418,2.342,0,0,0,0,0,0,0,0,0,0,0,0,0,2.3254,2.3256,2.3378,2.3379,2.3379,2.3422,2.3422,2.3423,2.3375,2.3373,2.337,2.3368,2.3414,2.3417,2.3421,0,0,0,0,0,0,0,0,0,0,0,0,0,2.3304,2.3257,2.3378,2.336,2.3359,2.3422,2.3422,2.3423,2.3375,2.3373,2.337,2.3367,2.3413,2.3417,2.3421,2.3504,0,0,2.3435,2.3436,0,0,0,0,0,0,0,0,2.3301,2.3308,2.3362,2.3362,2.336,2.339,2.3395,2.345,2.3376,2.3369,2.3369,2.3366,2.3409,2.3413,2.3428,2.3506,2.3508,2.3435,2.3438,2.344,2.3441,0,0,0,0,0,0,0,2.3298,2.3306,2.3395,2.3363,2.3362,2.335,2.3355,2.3405,2.3404,2.337,2.3366,2.3372,2.3408,2.3423,2.3428,2.3508,2.3435,2.3439,2.3441,2.3443,2.3657,2.366,0,0,0,0,0,0,2.3296,2.3304,2.3394,2.3397,2.3323,2.3355,2.3359,2.3383,2.3403,2.3404,2.3374,2.337,2.3417,2.3423,2.343,2.3528,2.3439,2.3444,2.3446,2.3654,2.3658,2.3661,0,0,0,0,0,0,2.3293,2.3304,2.3392,2.3349,2.336,2.336,2.3387,2.3386,2.3401,2.3407,2.3406,2.3391,2.3415,2.3424,2.3486,2.3529,2.3446,2.345,2.3651,2.3656,2.366,2.3726,0,0,0,0,0,0,2.329,2.3304,2.3335,2.335,2.3362,2.3447,2.339,2.3388,2.3409,2.3403,2.3422,2.3423,2.3414,2.348,2.349,2.3534,2.3453,2.3647,2.3653,2.3658,2.372,2.3732,2.3743,0,0,0,0,0,2.3286,2.3352,2.3337,2.3348,2.3401,2.345,2.3457,2.3445,2.3413,2.3444,2.3448,2.3422,2.3523,2.3486,2.3498,2.3543,2.3644,2.3651,2.3658,2.3715,2.373,2.3742,0,0,0,0,0,0,2.3341,2.3353,2.3337,2.3409,2.3429,2.3442,2.3481,2.3461,2.3491,2.3484,2.3469,2.3473,2.354,2.3548,2.3507,2.3625,2.3578,2.3588,2.3617,2.3632,2.3643,2.364,2.3457,0,0,0,0,0,2.3362,2.34,2.3409,2.3472,2.3483,2.3481,2.3501,2.3491,2.3511,2.3519,2.3527,2.3548,2.3584,2.3608,2.3642,2.3721,2.3724,2.3758,2.3769,2.3778,2.3787,2.383,2.3846,2.3684,2.3684,2.3684,0,0,2.3405,2.3416,2.3442,2.3484,2.3498,2.3539,2.3488,2.3533,2.3563,2.3526,2.3585,2.3592,2.3614,2.3685,2.3717,2.3694,2.3833,2.3787,2.3795,2.3798,2.3839,2.3854,2.3868,2.3689,2.3688,2.3687,0,0,2.3504,2.3516,2.3571,2.3586,2.3608,2.3606,2.3619,2.3635,2.3638,2.3698,2.3671,2.3707,2.3769,2.3787,2.3803,2.3911,2.3888,2.3922,2.3982,2.4024,2.4037,2.4048,2.4087,2.4101,2.393,2.3931,2.3931,0,2.3555,2.3615,2.3601,2.3649,2.3669,2.3637,2.3692,2.3708,2.374,2.3754,2.3728,2.3806,2.3819,2.3894,2.392,2.3935,2.395,2.392,2.4036,2.4047,2.4058,2.4095,2.4109,2.3935,2.3934,2.3934,2.3933,0,2.3677,2.372,2.3761,2.3793,2.3817,2.3869,2.3863,2.3889,2.3877,2.3878,2.394,2.3954,2.399,2.4007,2.3995,2.4081,2.4066,2.4038,2.3991,2.4077,2.4112,2.4126,2.394,2.3939,2.3938,2.3937,0,0,2.3813,2.3837,2.3852,2.3867,2.3889,2.3922,2.3972,2.4007,2.4031,2.4054,2.4096,2.4151,2.4125,2.4144,2.4134,2.4172,2.4257,2.4139,2.4139,2.4161,2.4354,2.4375,2.4392,2.4242,2.4245,2.4247,2.4352,0,2.3913,2.4,2.399,2.4073,2.4112,2.4083,2.4127,2.4146,2.4148,2.4182,2.4185,2.4224,2.4187,2.4199,2.4234,2.4239,2.4295,2.4231,2.4282,2.4284,2.4278,2.4409,2.4432,2.4531,2.4365,2.4368,2.4369,0,2.4042,2.407,2.4158,2.4175,2.4191,2.423,2.4263,2.4296,2.4317,2.4316,2.4338,2.4322,2.4373,2.4325,2.4395,2.4352,2.4372,2.4378,2.4381,2.4386,2.4332,2.4418,2.4562,2.4577,2.439,2.4389,2.4387,0,2.4133,2.4193,2.4253,2.4266,2.4287,2.4316,2.4326,2.4345,2.4367,2.4395,2.441,2.4444,2.4463,2.449,2.4483,2.4449,2.4556,2.4507,2.4558,2.4558,2.4582,2.4581,2.4731,2.4594,2.4594,2.4594,2.4593,0,2.4247,2.4302,2.4295,2.4332,2.4393,2.438,2.4441,2.4447,2.4464,2.4503,2.4479,2.4516,2.4505,2.4541,2.4536,2.4596,2.4605,2.4606,2.4604,2.4609,2.4609,2.4622,2.4615,2.4597,2.4597,2.4596,2.4595,0,2.4359,2.4356,2.442,2.4435,2.444,2.4485,2.4497,2.4533,2.4534,2.4583,2.4593,2.4595,2.4637,2.4633,2.468,2.4676,2.4751,2.4741,2.4744,2.4742,2.4793,2.4789,2.4958,2.498,2.4828,2.483,2.4831,0,2.4432,2.4474,2.4494,2.4517,2.453,2.4569,2.4591,2.4581,2.4606,2.4633,2.4666,2.4705,2.4736,2.4804,2.481,2.4846,2.4837,2.4894,2.4842,2.4845,2.4839,2.4837,2.4841,2.4904,2.4906,2.4907,2.4908,0,2.4563,2.456,2.4593,2.4627,2.4655,2.4681,2.4705,2.4726,2.4718,2.4747,2.4789,2.4813,2.4861,2.4901,2.4936,2.4946,2.4927,2.4924,2.4938,2.4943,2.4944,2.4945,2.4773,2.4921,2.4919,2.4918,2.4918,2.4917,2.4658,2.4694,2.4714,2.4753,2.4769,2.4792,2.4826,2.4831,2.4866,2.4905,2.4896,2.4944,2.4965,2.5009,2.5024,2.5061,2.5041,2.5061,2.5066,2.5071,2.5077,2.4937,2.5067,2.5067,2.5067,2.5066,2.5066,0,2.4788,2.48,2.4835,2.4869,2.49,2.4878,2.4903,2.4931,2.4973,2.4994,2.5025,2.5074,2.5113,2.5122,2.5159,2.5188,2.518,2.5198,2.5196,2.5199,2.5093,2.5078,2.5204,2.5204,2.5204,2.5204,2.5204,2.5204,2.486,2.492,2.4919,2.4987,2.4998,2.5045,2.5061,2.5082,2.5099,2.5155,2.5187,2.5193,2.5209,2.5247,2.5282,2.5284,2.5299,2.5321,2.532,2.522,2.5207,2.5193,2.5179,2.5325,2.5325,2.5423,2.5424,2.5424]},{"header":{"parameterUnit":"m.s-1","parameterCategory":1,"la1":30.2991,"la2":30.254,"lo1":-89.0895,"lo2":-89.0444,"dy":0.0017,"dx":0.0017,"nx":28,"ny":28,"refTime":"2024-08-06T03:00:00:Z","depth":0,"parameterNumber":3,"parameterNumberName":"V-component_of_WINDS"},"data":[0,0,0,0,0,0,0,0,0,0,0,0,0,0,0,0,0,0,0,0,0,0,0,0,0,0,0,0,0,0,0,0,0,0,0,0,0,0,0,0,0,0,0,0,0,0,0,0,0,0,0,0,0,0,0,0,0,0,-2.6581,-2.6583,0,-2.6716,-2.6718,-2.6719,-2.6729,-2.6728,-2.6726,-2.6725,-2.6865,-2.687,-2.6875,0,0,0,0,0,0,0,0,0,0,0,0,0,-2.6335,-2.6339,-2.6581,-2.6583,-2.6585,-2.6716,-2.6718,-2.672,-2.673,-2.6728,-2.6726,-2.6724,-2.6863,-2.6869,-2.6875,0,0,0,0,0,0,0,0,0,0,0,0,0,-2.6453,-2.6341,-2.6581,-2.6605,-2.6609,-2.6716,-2.6718,-2.672,-2.673,-2.6728,-2.6725,-2.6723,-2.6861,-2.6869,-2.6876,-2.6968,0,0,-2.69,-2.6903,0,0,0,0,0,0,0,0,-2.6446,-2.6462,-2.66,-2.6604,-2.6608,-2.6704,-2.6682,-2.6804,-2.673,-2.6684,-2.6725,-2.6722,-2.6813,-2.6825,-2.6855,-2.6975,-2.6981,-2.69,-2.6905,-2.6908,-2.6911,0,0,0,0,0,0,0,-2.6438,-2.6456,-2.6635,-2.6602,-2.6607,-2.661,-2.6625,-2.6705,-2.676,-2.6688,-2.6689,-2.6705,-2.6815,-2.6847,-2.6858,-2.6983,-2.69,-2.6907,-2.6912,-2.6915,-2.7187,-2.719,0,0,0,0,0,0,-2.6425,-2.645,-2.663,-2.6639,-2.652,-2.6617,-2.6633,-2.6675,-2.6759,-2.6769,-2.6706,-2.6705,-2.6835,-2.6849,-2.6863,-2.6978,-2.6908,-2.6915,-2.692,-2.7185,-2.7188,-2.7191,0,0,0,0,0,0,-2.642,-2.6441,-2.6625,-2.6545,-2.6568,-2.6623,-2.6671,-2.6679,-2.6712,-2.6773,-2.6783,-2.673,-2.6834,-2.6852,-2.6943,-2.6983,-2.6919,-2.6926,-2.7182,-2.7186,-2.719,-2.7207,0,0,0,0,0,0,-2.6413,-2.6439,-2.6474,-2.6545,-2.6572,-2.6701,-2.6673,-2.6683,-2.6725,-2.6724,-2.6797,-2.6807,-2.6834,-2.6931,-2.695,-2.6992,-2.6932,-2.7178,-2.7184,-2.7188,-2.7203,-2.7211,-2.7218,0,0,0,0,0,-2.6404,-2.6474,-2.6476,-2.6497,-2.6617,-2.6703,-2.6719,-2.6748,-2.6728,-2.6764,-2.6803,-2.6805,-2.6975,-2.694,-2.6962,-2.7007,-2.7176,-2.7182,-2.7188,-2.72,-2.7209,-2.7218,0,0,0,0,0,0,-2.6406,-2.6483,-2.6486,-2.6581,-2.6636,-2.6705,-2.6751,-2.6757,-2.6819,-2.6815,-2.6849,-2.6866,-2.6955,-2.699,-2.6949,-2.7101,-2.7074,-2.7084,-2.7075,-2.7085,-2.7092,-2.7082,-2.6938,0,0,0,0,0,-2.6417,-2.648,-2.6545,-2.6622,-2.6649,-2.6696,-2.6734,-2.6752,-2.681,-2.6833,-2.6879,-2.6936,-2.7003,-2.7046,-2.711,-2.7208,-2.7225,-2.725,-2.7257,-2.7263,-2.7272,-2.7328,-2.734,-2.721,-2.721,-2.721,0,0,-2.6442,-2.6492,-2.653,-2.6624,-2.6668,-2.6734,-2.6715,-2.6784,-2.6834,-2.6844,-2.6932,-2.6968,-2.7034,-2.7128,-2.7172,-2.716,-2.7312,-2.7271,-2.7275,-2.7281,-2.7335,-2.7347,-2.7358,-2.7214,-2.7214,-2.7213,0,0,-2.652,-2.6564,-2.6633,-2.6678,-2.6745,-2.6776,-2.6793,-2.6862,-2.6886,-2.6974,-2.6984,-2.7043,-2.7157,-2.7204,-2.7242,-2.734,-2.7344,-2.736,-2.7398,-2.7453,-2.7463,-2.7472,-2.7508,-2.752,-2.7368,-2.7368,-2.7368,0,-2.6542,-2.664,-2.6669,-2.6739,-2.678,-2.6792,-2.6864,-2.6906,-2.6991,-2.7021,-2.7006,-2.7149,-2.7194,-2.7301,-2.7325,-2.7355,-2.7377,-2.7351,-2.7459,-2.7468,-2.7478,-2.7512,-2.7525,-2.737,-2.737,-2.7369,-2.7369,0,-2.6664,-2.6732,-2.6781,-2.6862,-2.691,-2.698,-2.7021,-2.7065,-2.7079,-2.7112,-2.7203,-2.7257,-2.7334,-2.736,-2.7374,-2.747,-2.746,-2.7452,-2.7425,-2.7491,-2.7524,-2.7537,-2.7372,-2.7371,-2.7371,-2.7371,0,0,-2.6747,-2.6844,-2.6862,-2.6899,-2.6975,-2.7028,-2.71,-2.7174,-2.7213,-2.7271,-2.7333,-2.7429,-2.7422,-2.7466,-2.7486,-2.7534,-2.7609,-2.752,-2.7522,-2.7535,-2.7718,-2.7725,-2.7739,-2.7612,-2.7614,-2.7616,-2.7713,0,-2.6834,-2.6961,-2.699,-2.7099,-2.7163,-2.7176,-2.7239,-2.7292,-2.7325,-2.7385,-2.7421,-2.7489,-2.7474,-2.7501,-2.7549,-2.7589,-2.7646,-2.7583,-2.7671,-2.7673,-2.7654,-2.7757,-2.7763,-2.7852,-2.7726,-2.7728,-2.773,0,-2.6952,-2.7014,-2.7129,-2.7198,-2.7226,-2.7281,-2.7352,-2.7409,-2.7471,-2.7491,-2.7541,-2.7556,-2.7633,-2.7602,-2.7708,-2.7664,-2.7702,-2.7728,-2.7732,-2.7742,-2.7706,-2.777,-2.7881,-2.7894,-2.775,-2.7749,-2.7747,0,-2.7002,-2.7114,-2.7198,-2.7229,-2.7311,-2.735,-2.7386,-2.7445,-2.7489,-2.7551,-2.758,-2.7651,-2.7689,-2.7745,-2.7779,-2.7753,-2.7883,-2.7855,-2.7904,-2.7903,-2.7931,-2.7929,-2.805,-2.7954,-2.7954,-2.7953,-2.7953,0,-2.7097,-2.7168,-2.7221,-2.7273,-2.7353,-2.7386,-2.7464,-2.7501,-2.7554,-2.7614,-2.7629,-2.7685,-2.7727,-2.779,-2.7817,-2.7902,-2.7919,-2.7939,-2.7945,-2.7938,-2.7936,-2.7964,-2.7959,-2.7957,-2.7956,-2.7956,-2.7955,0,-2.7166,-2.7205,-2.7297,-2.7367,-2.7386,-2.7442,-2.7502,-2.7554,-2.7587,-2.7663,-2.7683,-2.7735,-2.7809,-2.7849,-2.7942,-2.7961,-2.8056,-2.8059,-2.8035,-2.8038,-2.8085,-2.808,-2.8229,-2.8251,-2.8139,-2.814,-2.8141,0,-2.7224,-2.7279,-2.7354,-2.7395,-2.7432,-2.7497,-2.7542,-2.7577,-2.7622,-2.7698,-2.7741,-2.7816,-2.7878,-2.7996,-2.8043,-2.8115,-2.812,-2.8167,-2.8131,-2.8122,-2.8122,-2.8119,-2.8125,-2.8174,-2.8175,-2.8176,-2.8176,0,-2.7323,-2.734,-2.7403,-2.7473,-2.7525,-2.7582,-2.7638,-2.7671,-2.7716,-2.7767,-2.7843,-2.7891,-2.7986,-2.8061,-2.8137,-2.8175,-2.8184,-2.8187,-2.8203,-2.8196,-2.818,-2.819,-2.8053,-2.8184,-2.8183,-2.8183,-2.8182,-2.8182,-2.739,-2.7439,-2.75,-2.757,-2.7616,-2.7669,-2.7721,-2.7761,-2.7824,-2.7904,-2.7921,-2.8002,-2.8064,-2.8166,-2.8207,-2.8272,-2.8262,-2.8284,-2.829,-2.8295,-2.8297,-2.8169,-2.8285,-2.8285,-2.8285,-2.8285,-2.8285,0,-2.749,-2.753,-2.7594,-2.7673,-2.7728,-2.7731,-2.7794,-2.784,-2.7911,-2.7967,-2.8028,-2.8116,-2.819,-2.8243,-2.8318,-2.8359,-2.8365,-2.8378,-2.8375,-2.8384,-2.8301,-2.828,-2.8372,-2.8372,-2.8372,-2.8372,-2.8372,-2.8372,-2.7549,-2.7634,-2.7658,-2.7766,-2.7806,-2.7885,-2.792,-2.797,-2.8015,-2.8113,-2.8173,-2.8207,-2.8263,-2.8343,-2.841,-2.8424,-2.8452,-2.8464,-2.8478,-2.8399,-2.839,-2.8381,-2.8362,-2.8469,-2.847,-2.8557,-2.8558,-2.8558]}]]